Regional Weather Roundup
Issued by NWS

Home | Current Version | Previous Version | Text Only | Print | Product List | Glossary Off
Versions: 1 2 3 4 5 6 7 8 9 10 11 12 13 14 15 16 17 18 19 20 21 22 23 24 25 26 27 28 29 30 31 32 33 34 35 36 37 38 39 40 41 42 43 44 45 46 47 48 49 50

000
ASUS43 KDTX 190610
RWRMI
MICHIGAN HOURLY REGIONAL WEATHER ROUNDUP
NATIONAL WEATHER SERVICE DETROIT/PONTIAC MI
200 AM EDT THU OCT 19 2017

NOTE: "FAIR" INDICATES FEW OR NO CLOUDS BELOW 12,000 FEET WITH NO
SIGNIFICANT WEATHER AND/OR OBSTRUCTION TO VISIBILITY.

MIZ047>049-052>055-059>063-066>070-074>076-081>083-190700-
SOUTHEAST LOWER MICHIGAN

CITY           SKY/WX    TMP DP  RH WIND       PRES   REMARKS
ADRIAN         CLEAR     49  41  74 SW5       30.12F
6HR MIN TEMP:  47; 6HR MAX TEMP:  58;

ALMA           CLEAR     54  41  60 SW10G16   30.00F
ANN ARBOR      CLEAR     46  41  82 S6        30.09F
BAD AXE        CLEAR     57  40  52 SW14      29.99F
CARO           CLEAR     58  40  51 SW14G23   30.00F
DETROIT CITY   CLEAR     57  42  57 SW13      30.09F
6HR MIN TEMP:  57; 6HR MAX TEMP:  63;

DETROIT        CLEAR     55  43  63 SW12      30.10F
6HR MIN TEMP:  51; 6HR MAX TEMP:  59;

FLINT          CLEAR     56  41  57 SW10      30.04F
6HR MIN TEMP:  56; 6HR MAX TEMP:  61;

GROSSE ILE     CLEAR     56  43  60 SW6       30.10R
6HR MIN TEMP:  56; 6HR MAX TEMP:  63;

HILLSDALE      CLEAR     54  41  62 SW9       30.10S
HOWELL         CLEAR     53  42  65 SW7       30.06F
6HR MIN TEMP:  53; 6HR MAX TEMP:  59;


CITY           SKY/WX    TMP DP  RH WIND       PRES   REMARKS
JACKSON        CLEAR     56  42  59 SW13      30.08F
6HR MIN TEMP:  56; 6HR MAX TEMP:  59;

LAMBERTVILLE   CLEAR     57  42  57 SW6       30.11F
6HR MIN TEMP:  57; 6HR MAX TEMP:  61;

LANSING        CLEAR     56  41  57 SW16      30.05F
6HR MIN TEMP:  55; 6HR MAX TEMP:  60;

LAPEER         NOT AVBL
MASON          CLEAR     58  43  56 SW7       30.06F
MONROE         CLEAR     56  41  56 SW6       30.10S
6HR MIN TEMP:  56; 6HR MAX TEMP:  59;

MT. CLEMENS    CLEAR     57  42  58 SW10      30.06F
6HR MIN TEMP:  52; 6HR MAX TEMP:  60;

PONTIAC        CLEAR     55  42  61 SW7       30.06F
6HR MIN TEMP:  55; 6HR MAX TEMP:  60;

PORT HOPE        N/A     61  40  45 SW13G29   29.94F
6HR MIN TEMP:  59; 6HR MAX TEMP:  62;

PORT HURON     CLEAR     57  43  58 SW5       30.06F
TRI CITIES     CLEAR     59  44  57 SW18G24   29.99F
6HR MIN TEMP:  58; 6HR MAX TEMP:  62;

MIDLAND        FAIR      56  42  60 SW9       29.97F
6HR MIN TEMP:  56; 6HR MAX TEMP:  61;

TROY           CLEAR     56  40  55 SW9       30.09F
SAGINAW HB     CLEAR     55  41  58 SW15      29.99F
$$
MIZ043>046-050>051-056>058-064>065-071>073-077>080-190700-
SOUTHWEST LOWER MICHIGAN

CITY           SKY/WX    TMP DP  RH WIND       PRES   REMARKS
BATTLE CREEK   CLEAR     55  44  66 SW15      30.06F
6HR MIN TEMP:  54; 6HR MAX TEMP:  61;

BENTON HARBOR  CLEAR     58  44  60 S8        30.05F
6HR MIN TEMP:  57; 6HR MAX TEMP:  62;

BIG RAPIDS     CLEAR     57  44  61 SW7G16    29.96S
6HR MIN TEMP:  57; 6HR MAX TEMP:  59;

COLDWATER      CLEAR     54  42  64 SW7       30.09S
6HR MIN TEMP:  54; 6HR MAX TEMP:  60;

FREMONT        FAIR      59  49  69 SW9       29.97F
HOLLAND        CLEAR     60  48  64 SW17      30.02F
6HR MIN TEMP:  58; 6HR MAX TEMP:  63;

GRAND RAPIDS   CLEAR     57  45  64 S14       30.02F
6HR MIN TEMP:  57; 6HR MAX TEMP:  60;

IONIA          FAIR      57  42  58 SW13      30.01F
6HR MIN TEMP:  56; 6HR MAX TEMP:  60;

KALAMAZOO      CLEAR     51  43  74 S9        30.07F
6HR MIN TEMP:  51; 6HR MAX TEMP:  60;

LUDINGTON      CLEAR     61  49  63 SW15G25   29.93R
6HR MIN TEMP:  61; 6HR MAX TEMP:  63;

MARSHALL       CLEAR     54  42  65 SW6       30.07F
6HR MIN TEMP:  54; 6HR MAX TEMP:  58;

MOUNT PLEASANT CLEAR     59  41  51 SW12G17   29.97S
6HR MIN TEMP:  59; 6HR MAX TEMP:  64;

MUSKEGON       CLEAR     62  51  67 SW18G28   29.99F
6HR MIN TEMP:  61; 6HR MAX TEMP:  63;

SOUTH HAVEN    CLEAR     60  44  55 SW13      30.04F
$$
MIZ016>042-190700-
NORTHERN LOWER MICHIGAN

CITY           SKY/WX    TMP DP  RH WIND       PRES   REMARKS
ALPENA         CLEAR     60  41  49 SW12G21   29.87F
6HR MIN TEMP:  59; 6HR MAX TEMP:  62;

BEAVER ISLAND  CLOUDY    62  51  68 SW18G29   29.80S
6HR MIN TEMP:  62; 6HR MAX TEMP:  64;

BELLAIRE       MOCLDY    60  45  55 S6        29.87S
6HR MIN TEMP:  60; 6HR MAX TEMP:  63;

CADILLAC       PTCLDY    58  45  62 SW10G18   29.93R
CHARLEVOIX     PTCLDY    65  46  51 SW18G28   29.86F
6HR MIN TEMP:  61; 6HR MAX TEMP:  65;

FRANKFORT      MOCLDY    64  50  62 S14G22    29.89F
GAYLORD        PTCLDY    58  41  53 SW18G28   29.87F
6HR MIN TEMP:  58; 6HR MAX TEMP:  60;

GRAYLING       CLEAR     56  42  57 SW9G16    29.91S
6HR MIN TEMP:  56; 6HR MAX TEMP:  60;

HARBOR SPRINGS CLEAR     61  46  56 SW14G24   29.82S
HOUGHTON LAKE  CLEAR     57  42  57 SW15G24   29.93F
6HR MIN TEMP:  57; 6HR MAX TEMP:  61;

MANISTEE       PTCLDY    63  47  55 SW8G18    29.91R
OSCODA         PTCLDY    56  39  52 SW13G21   29.91F
6HR MIN TEMP:  56; 6HR MAX TEMP:  61;

PELLSTON       CLEAR     62  46  55 SW16G28   29.81F
6HR MIN TEMP:  61; 6HR MAX TEMP:  65;

ROGERS CITY    CLEAR     60  42  51 SW15G21   29.82F
TRAVERSE CITY  PTCLDY    64  45  49 SW8       29.86S
6HR MIN TEMP:  62; 6HR MAX TEMP:  64;

$$
MIZ007>008-015-190700-
EASTERN UPPER MICHIGAN

CITY           SKY/WX    TMP DP  RH WIND       PRES   REMARKS
KINROSS        PTCLDY    61  50  67 W8G17     29.77S
6HR MIN TEMP:  60; 6HR MAX TEMP:  63;

MACKINAC ISLAN CLEAR     64  48  57 SW23G36   29.78S
6HR MIN TEMP:  62; 6HR MAX TEMP:  65;

NEWBERRY       CLOUDY    55  52  90 SW7       29.79R
6HR MIN TEMP:  55; 6HR MAX TEMP:  60;

S. S. MARIE    CLOUDY    62  50  64 W12G18    29.76R
6HR MIN TEMP:  61; 6HR MAX TEMP:  64;

MUNISING         N/A     57  36  45 VRB5      29.81R
6HR MIN TEMP:  57; 6HR MAX TEMP:  62;

$$
MIZ004>006-011>014-085-190700-
CENTRAL UPPER MICHIGAN

CITY           SKY/WX    TMP DP  RH WIND       PRES   REMARKS
MANISTIQUE     PTCLDY    57  48  70 W8        29.79R
6HR MIN TEMP:  55; 6HR MAX TEMP:  58;

ESCANABA       CLEAR     54  45  71 W9        29.82R
6HR MIN TEMP:  54; 6HR MAX TEMP:  60;

MENOMINEE      CLEAR     59  46  62 W6        29.86R
6HR MIN TEMP:  59; 6HR MAX TEMP:  65;

SAWYER-GWINN   CLEAR     52  24  33 W10       29.84R
6HR MIN TEMP:  52; 6HR MAX TEMP:  63;

$$
MIZ001>003-009>011-084-190700-
WESTERN UPPER MICHIGAN

CITY           SKY/WX    TMP DP  RH WIND       PRES   REMARKS
IRON MOUNTAIN  CLEAR     56  20  24 W12       29.85R
6HR MIN TEMP:  56; 6HR MAX TEMP:  67;

HOUGHTON       LGT RAIN  53  28  38 W28G36    29.77R
6HR MIN TEMP:  53; 6HR MAX TEMP:  63; 6HR PCP: TRACE;

COPPER HARBOR    N/A     56  29  35 NW13G33   29.75R
6HR MIN TEMP:  55; 6HR MAX TEMP:  67;

IRONWOOD       PTCLDY    48  20  32 W12       29.89R
6HR MIN TEMP:  48; 6HR MAX TEMP:  62;

$$

ABBREVIATIONS USED IN REMARKS
   TC - TEMPERATURE IN CELSIUS
  WCI - WIND CHILL INDEX
   HX - HEAT INDEX
  VSB - VISIBILITY





USA.gov is the U.S. government's official web portal to all federal, state and local government web resources and services.